FENGYUN 1C DEB, 31208

Orbit data source: Space-Track

FENGYUN 1C DEB, 31208 is space debris in SSO originally from a launch on Mon, 10 May 1999 UTC launched from the Taiyaun Space Center, China (TSC). Fengyun 1C debris stems from the Chinese weather satellite Fengyun-1C, which was intentionally destroyed by a Chinese anti-satellite missile in 2007. This event dramatically increased the amount of space debris, with thousands of trackable fragments posing hazards to satellites and human spaceflight. The Fengyun 1C debris cloud has become a focal point in discussions about space sustainability and the need for international regulations to prevent the creation of new debris.

Loading next visibility...
Identifier
31208, 1999-025BKN
Orbit
SSO
Country
Flag of CNCN / PRC
Related business
Manufacturer
Unknown
Mission
Spacecraft
Bus & Motor
Unknown
Mass
Unknown
Launch date (UTC)
1999-05-10 (27 years ago)
Launch vehicle
Unknown
Launch site
Taiyaun Space Center, China (TSC)
Object type
Payload
Rocket body
Debris
Shape & HBR
Unknown shape, 0.1 m
Radar Cross Section
Small (<0.1 m²)

Expand to show TLE details & history
Last TLE update: 22 hours ago

TLE from 22 hours ago
0 FENGYUN 1C DEB
1 31208U 99025BKN 25346.89491545  .00020437  00000-0  40828-2 0  9994
2 31208  99.2395 130.6146 0016090 266.9466 244.5535 14.61836366704811
Epoch: 2025-12-12T21:28Z
TLE epoch observation values (Epoch: 2025-12-12T21:28:40.694Z)
Latitude
28.30646°
Longitude
-88.38571°
Altitude
695.661 km
Speed
7.508 km/s
True Right ascension
21h 02m 27s
True Declination
28° 09' 43"
Sunlit
Object was in daylight at epoch
Visualization orbit readout
Latitude
Unknown
Longitude
Unknown
Altitude
Unknown
Speed
Unknown
Apparent Right ascension
Unknown
Apparent Declination
Unknown
Sunlit
N/A
Visualization observer readout
Local Sidereal Time
18:07:52
Azimuth
Unknown
Elevation
Unknown
Doppler factor
Unknown
Orbital elements
Apogee altitude
695.744 km
Perigee altitude
673.017 km
Semi-major axis
7,062.517 km
Eccentricity
0.00161
Inclination
99.2395°
RAAN
130.6146°
Arg. of periapsis
266.9466°
True anomaly
244.38715°
Mean anomaly
244.5535°
Eccentric anomaly
244.47031°
Mean motion
3.65682 °/min
Orbital period
98.45 mins
BSTAR
0.0040828
Loading maneuver chart data...
Computing Atmospheric mass density...

Documentation

Showing up to 5 results
|